Regional Weather Roundup
Issued by NWS

Home | Current Version | Previous Version | Text Only | Print | Product List | Glossary On
Versions: 1 2 3 4 5 6 7 8 9 10 11 12 13 14 15 16 17 18 19 20 21 22 23 24 25 26 27 28 29 30 31 32 33 34 35 36 37 38 39 40 41 42 43 44 45 46 47 48 49 50
000
ASUS44 KLIX 180813
RWRLA
LOUISIANA WEATHER ROUNDUP
NATIONAL WEATHER SERVICE NEW ORLEANS LA
300 AM CDT WED OCT 18 2017

NOTE: "FAIR" INDICATES FEW OR NO CLOUDS BELOW 12,000 FEET WITH NO
      SIGNIFICANT WEATHER AND/OR OBSTRUCTIONS TO VISIBILITY.
      SKY/WX - SKY CONDITION AND SIGNIFICANT WEATHER.
      TMP - AIR TEMPERATURE.    DP   - DEWPOINT TEMPERATURE.
      RH  - RELATIVE HUMIDITY.  PRES - PRESSURE.
      HX  - HEAT INDEX.         WCI  - WIND CHILL INDEX.

*  THESE STATIONS ARE NOT NWS OR FAA STATIONS AND ARE NOT UNDER
   NWS QUALITY CONTROL.

LAZ040-048-061>063-065-066-069-180900-
SOUTHEAST LOUISIANA

CITY           SKY/WX    TMP DP  RH WIND       PRES   REMARKS
N.O. INTL ARPT CLEAR     67  61  81 NE6       30.14F
N.O. LAKEFRONT CLEAR     68  61  78 E16       30.14F
N.O. DOWNTOWN* FAIR      66  58  75 N3        30.15S
RESERVE*       FAIR      63  59  88 NE5       30.15S
SLIDELL        CLEAR     58  52  80 NE5       30.16S
BATON ROUGE    CLEAR     56  53  90 NE3       30.16F
BOOTHVILLE     CLEAR     75  65  70 NE3       30.11F
BELLE CHASSE   NOT AVBL
BOGALUSA*      FAIR      53  50  90 N3        30.20S
GALLIANO*      SUNNY     65  61  86 NE3       30.12F
NEW ROADS*     FAIR      56  52  85 CALM      30.17F
GONZALES*      FAIR      59  55  87 CALM      30.15S
HAMMOND*       CLEAR     57  52  82 CALM      30.17S
HOUMA*         CLEAR    N/A N/A N/A NE5       30.13F
PORT FOURCHON* PTSUNNY   70  66  88 NE9       30.12F

$$

LAZ041-044-053-054-180900-
SOUTHWEST LOUISIANA

CITY           SKY/WX    TMP DP  RH WIND       PRES   REMARKS
LAKE CHARLES   CLEAR     54  52  93 CALM      30.16S
LAFAYETTE      CLEAR     58  56  93 CALM      30.16S
PATTERSON      NOT AVBL
SALT POINT       N/A     62  60  93 CALM      30.13F
NEW IBERIA     CLEAR     55  52  89 N5        30.16S
CHENAULT AIRPK   N/A     51  49  93 CALM      30.17R

$$

LAZ027-028-180900-
CENTRAL LOUISIANA

CITY           SKY/WX    TMP DP  RH WIND       PRES   REMARKS
FORT POLK      CLEAR     53  49  85 CALM      30.17S
ALEXANDRIA INT CLEAR     49  45  86 CALM      30.17R
ALEXANDRIA     CLEAR     46  45  96 CALM      30.19R

$$

LAZ001-002-180900-
NORTHWEST LOUISIANA

CITY           SKY/WX    TMP DP  RH WIND       PRES   REMARKS
SHREVEPORT     CLEAR     48  45  89 CALM      30.18F
BARKSDALE AFB  CLEAR     48  45  91 CALM      30.18F
DTN SHREVEPORT CLEAR     50  47  89 CALM      30.19F

$$

LAZ014-016-180900-
NORTHEAST LOUISIANA

CITY           SKY/WX    TMP DP  RH WIND       PRES   REMARKS
MONROE         CLEAR     50  48  93 CALM      30.21S
TALLULAH       CLEAR     49  49 100 CALM      30.22R

$$




USA.gov is the U.S. government's official web portal to all federal, state and local government web resources and services.